Strasburg, ND

11:50 AM CDT on August 24, 2016 (GMT -0500)
Linton Municipal Airport

Weather History for K7L2 - May, 2014

Change the Weather History Date:

Tuesday, May 20, 2014

  Actual Average (KBIS) Record (KBIS)
Temperature  
Mean Temperature 56 °F 57 °F  
Max Temperature 71 °F 70 °F 92 °F (1886)
Min Temperature 41 °F 44 °F 23 °F (1931)
Degree Days  
Heating Degree Days 9 9  
Month to date heating degree days 232  
Since 1 July heating degree days 8387  
Cooling Degree Days 0 1  
Month to date cooling degree days 2  
Year to date cooling degree days 3  
Growing Degree Days 6 (Base 50)    
Moisture  
Dew Point 45 °F    
Average Humidity 71    
Maximum Humidity 100    
Minimum Humidity 40    
Precipitation  
Precipitation 0.00 in 0.08 in 1.54 in (1987)
Month to date precipitation 1.45  
Year to date precipitation 4.52  
Snow  
Snow 0.00 in 0.00 in 0.00 in (2002)
Month to date snowfall 0.4  
Since 1 July snowfall 51.2  
Snow Depth -    
Sea Level Pressure  
Sea Level Pressure 29.90 in    
Wind  
Wind Speed 9 mph (WNW)    
Max Wind Speed 25 mph    
Max Gust Speed 34 mph    
Visibility 10 miles    
Events      
T = Trace of Precipitation, MM = Missing Value Source: NWS Daily Summary

Daily Weather History Graph

Daily Weather History Graph

Search for Another Location

Airport or City:

Trip Planner

Search our weather history database for the weather conditions in past years. The results will help you decide how hot, cold, wet, or windy it might be!

Date:

Astronomy

May. 20, 2014 Rise Set
Actual Time 6:02 AM CDT 9:13 PM CDT
Civil Twilight 5:26 AM CDT 9:49 PM CDT
Nautical Twilight 4:39 AM CDT 10:36 PM CDT
Astronomical Twilight 3:42 AM CDT 11:34 PM CDT
Moon 1:36 AM CDT (5/20) 12:21 PM CDT (5/20)
Length of Visible Light 16h 22m
Length of Day
15h 10m
Waning Gibbous, 60% of the Moon is Illuminated
May 20
Waning Gibbous
May 21
Last Quarter
May 28
New
Jun 5
First Quarter
Jun 12
Full

Hourly Weather History & Observations

Time (CDT) Temp. Windchill Dew Point Humidity Pressure Visibility Wind Dir Wind Speed Gust Speed Precip Events Conditions
12:15 AM 48.2 °F - 48.2 °F 100% 29.78 in 10.0 mi SW 8.1 mph - N/A   Clear
12:35 AM 46.4 °F 43.5 °F 46.4 °F 100% 29.79 in 10.0 mi West 5.8 mph - N/A   Clear
1:15 AM 46.4 °F 43.5 °F 46.4 °F 100% 29.79 in 10.0 mi SW 5.8 mph - N/A   Clear
1:35 AM 46.4 °F 43.5 °F 46.4 °F 100% 29.79 in 10.0 mi WSW 5.8 mph - N/A   Clear
1:55 AM 46.4 °F 42.9 °F 46.4 °F 100% 29.79 in 10.0 mi SW 6.9 mph - N/A   Clear
2:15 AM 44.6 °F 43.1 °F 44.6 °F 100% 29.80 in 10.0 mi SSW 3.5 mph - N/A   Clear
2:35 AM 46.4 °F 42.9 °F 46.4 °F 100% 29.80 in 10.0 mi SW 6.9 mph - N/A   Clear
2:55 AM 44.6 °F 43.1 °F 44.6 °F 100% 29.81 in 10.0 mi SW 3.5 mph - N/A   Clear
3:15 AM 46.4 °F 45.2 °F 44.6 °F 93% 29.81 in 10.0 mi WSW 3.5 mph - N/A   Clear
3:35 AM 44.6 °F 43.1 °F 44.6 °F 100% 29.81 in 10.0 mi WSW 3.5 mph - N/A   Clear
3:55 AM 44.6 °F - 44.6 °F 100% 29.81 in 10.0 mi Calm Calm - N/A   Clear
4:15 AM 41.0 °F 39.0 °F 41.0 °F 100% 29.81 in 10.0 mi SW 3.5 mph - N/A   Clear
4:35 AM 41.0 °F 37.1 °F 41.0 °F 100% 29.82 in 10.0 mi WSW 5.8 mph - N/A   Clear
4:55 AM 42.8 °F 38.6 °F 42.8 °F 100% 29.83 in 10.0 mi WSW 6.9 mph - N/A   Clear
5:15 AM 41.0 °F 37.1 °F 41.0 °F 100% 29.84 in 10.0 mi WSW 5.8 mph - N/A   Clear
5:35 AM 42.8 °F 38.0 °F 42.8 °F 100% 29.84 in 10.0 mi WSW 8.1 mph - N/A   Clear
5:55 AM 41.0 °F 37.1 °F 41.0 °F 100% 29.84 in 10.0 mi WSW 5.8 mph - N/A   Clear
6:15 AM 41.0 °F 39.0 °F 41.0 °F 100% 29.85 in 10.0 mi NW 3.5 mph - N/A   Clear
6:35 AM 41.0 °F 39.0 °F 41.0 °F 100% 29.85 in 10.0 mi WSW 3.5 mph - N/A   Clear
6:55 AM 44.6 °F 43.1 °F 44.6 °F 100% 29.86 in 10.0 mi WSW 3.5 mph - N/A   Clear
7:15 AM 46.4 °F 45.2 °F 46.4 °F 100% 29.86 in 10.0 mi West 3.5 mph - N/A   Clear
7:35 AM 48.2 °F - 48.2 °F 100% 29.86 in 10.0 mi WSW 3.5 mph - N/A   Clear
7:55 AM 50.0 °F - 48.2 °F 94% 29.87 in 10.0 mi WNW 5.8 mph - N/A   Clear
8:15 AM 50.0 °F - 48.2 °F 94% 29.87 in 10.0 mi WNW 5.8 mph - N/A   Clear
8:35 AM 53.6 °F - 48.2 °F 82% 29.87 in 10.0 mi NW 4.6 mph - N/A   Clear
8:55 AM 53.6 °F - 48.2 °F 82% 29.88 in 10.0 mi WNW 5.8 mph - N/A   Clear
9:15 AM 55.4 °F - 48.2 °F 77% 29.88 in 10.0 mi NW 6.9 mph - N/A   Clear
9:35 AM 57.2 °F - 48.2 °F 72% 29.88 in 10.0 mi NW 9.2 mph - N/A   Clear
9:55 AM 57.2 °F - 48.2 °F 72% 29.89 in 10.0 mi NW 4.6 mph - N/A   Clear
10:15 AM 59.0 °F - 48.2 °F 67% 29.89 in 10.0 mi WNW 11.5 mph - N/A   Clear
10:35 AM 62.6 °F - 48.2 °F 59% 29.89 in 10.0 mi West 9.2 mph - N/A   Clear
10:55 AM 62.6 °F - 46.4 °F 55% 29.89 in 10.0 mi West 9.2 mph 17.3 mph N/A   Clear
11:15 AM 64.4 °F - 46.4 °F 52% 29.89 in 10.0 mi WNW 11.5 mph 19.6 mph N/A   Clear
11:35 AM 66.2 °F - 46.4 °F 49% 29.89 in 10.0 mi West 15.0 mph 24.2 mph N/A   Clear
11:55 AM 66.2 °F - 46.4 °F 49% 29.89 in 10.0 mi West 15.0 mph 20.7 mph N/A   Clear
12:15 PM 68.0 °F - 46.4 °F 46% 29.88 in 10.0 mi West 15.0 mph 21.9 mph N/A   Clear
12:35 PM 68.0 °F - 46.4 °F 46% 29.88 in 10.0 mi West 13.8 mph 24.2 mph N/A   Clear
12:55 PM 69.8 °F - 46.4 °F 43% 29.88 in 10.0 mi West 17.3 mph 25.3 mph N/A   Partly Cloudy
1:15 PM 71.6 °F - 46.4 °F 41% 29.88 in 10.0 mi West 15.0 mph 24.2 mph N/A   Scattered Clouds
1:35 PM 69.8 °F - 46.4 °F 43% 29.88 in 10.0 mi WNW 17.3 mph 24.2 mph N/A   Scattered Clouds
1:55 PM 71.6 °F - 46.4 °F 41% 29.88 in 10.0 mi WNW 24.2 mph 29.9 mph N/A   Partly Cloudy
2:35 PM 68.0 °F - 48.2 °F 49% 29.89 in 10.0 mi WNW 21.9 mph 29.9 mph N/A   Scattered Clouds
2:55 PM 69.8 °F - 46.4 °F 43% 29.89 in 10.0 mi WNW 24.2 mph 33.4 mph N/A   Scattered Clouds
3:15 PM 68.0 °F - 46.4 °F 46% 29.89 in 10.0 mi WNW 21.9 mph 34.5 mph N/A   Scattered Clouds
3:35 PM 69.8 °F - 44.6 °F 40% 29.90 in 10.0 mi WNW 18.4 mph 32.2 mph N/A   Scattered Clouds
3:55 PM 68.0 °F - 44.6 °F 43% 29.90 in 10.0 mi WNW 25.3 mph 32.2 mph N/A   Scattered Clouds
4:15 PM 66.2 °F - 44.6 °F 46% 29.91 in 10.0 mi NW 18.4 mph 26.5 mph N/A   Mostly Cloudy
4:55 PM 68.0 °F - 44.6 °F 43% 29.92 in 10.0 mi NW 20.7 mph 31.1 mph N/A   Mostly Cloudy
5:15 PM 68.0 °F - 44.6 °F 43% 29.92 in 10.0 mi WNW 20.7 mph 28.8 mph N/A   Scattered Clouds
5:35 PM 66.2 °F - 42.8 °F 43% 29.93 in 10.0 mi NW 21.9 mph 29.9 mph N/A   Partly Cloudy
5:55 PM 66.2 °F - 42.8 °F 43% 29.93 in 10.0 mi NW 18.4 mph 24.2 mph N/A   Partly Cloudy
6:15 PM 66.2 °F - 42.8 °F 43% 29.94 in 10.0 mi NW 19.6 mph 26.5 mph N/A   Partly Cloudy
6:35 PM 64.4 °F - 42.8 °F 45% 29.94 in 10.0 mi NW 20.7 mph - N/A   Mostly Cloudy
6:55 PM 64.4 °F - 42.8 °F 45% 29.95 in 10.0 mi NW 19.6 mph 31.1 mph N/A   Scattered Clouds
7:15 PM 62.6 °F - 42.8 °F 48% 29.95 in 10.0 mi NNW 19.6 mph 25.3 mph N/A   Partly Cloudy
7:35 PM 59.0 °F - 42.8 °F 55% 29.96 in 10.0 mi NNW 17.3 mph 25.3 mph N/A   Clear
7:55 PM 59.0 °F - 41.0 °F 51% 29.97 in 10.0 mi NNW 16.1 mph 27.6 mph N/A   Clear
8:15 PM 59.0 °F - 41.0 °F 51% 29.98 in 10.0 mi NNW 16.1 mph 23.0 mph N/A   Clear
8:35 PM 57.2 °F - 42.8 °F 59% 29.99 in 10.0 mi NNW 10.4 mph - N/A   Clear
8:55 PM 55.4 °F - 42.8 °F 63% 30.00 in 10.0 mi NNW 8.1 mph - N/A   Clear
9:15 PM 55.4 °F - 44.6 °F 67% 30.00 in 10.0 mi NW 11.5 mph - N/A   Mostly Cloudy
9:35 PM 55.4 °F - 44.6 °F 67% 30.01 in 10.0 mi NW 9.2 mph - N/A   Overcast
9:55 PM 53.6 °F - 44.6 °F 72% 30.02 in 10.0 mi NNW 11.5 mph - N/A   Mostly Cloudy
10:15 PM 53.6 °F - 42.8 °F 67% 30.02 in 10.0 mi NNW 10.4 mph - N/A   Mostly Cloudy
10:35 PM 53.6 °F - 42.8 °F 67% 30.03 in 10.0 mi NW 9.2 mph - N/A   Mostly Cloudy
10:55 PM 51.8 °F - 42.8 °F 71% 30.04 in 10.0 mi NW 8.1 mph - N/A   Overcast
11:15 PM 50.0 °F - 42.8 °F 76% 30.04 in 10.0 mi NW 6.9 mph - N/A   Overcast
11:35 PM 50.0 °F - 44.6 °F 82% 30.03 in 10.0 mi NW 9.2 mph - N/A   Overcast
11:55 PM 48.2 °F - 44.6 °F 87% 30.04 in 10.0 mi WNW 5.8 mph - N/A   Mostly Cloudy